Location: Recife
(8.0585°S, 34.8848°W)
Time: 20:30:34
(UTC-03:00)

S-56A Canister/Altair - Pass Details

Date: 22 April 2026
Orbit: 633 x 2484 km, 38.9° (Epoch: 16 May)

Event Time Altitude Azimuth Distance (km) Brightness Sun altitude
Rises 00:25:11 0° 271° (W) 3,219 - -73.0°
Reaches altitude 10° 00:28:42 10° 298° (WNW) 2,525 - -72.2°
Maximum altitude 00:31:40 14° 328° (NNW) 2,475 - -71.4°
Drops below altitude 10° 00:35:07 10° 357° (N) 3,038 - -70.6°
Sets 00:40:14 0° 20° (NNE) 4,448 - -69.4°
